Погода в Барнауле

Погода в Барнауле : погода сейчас, прогноз погоды и архив. Всё, что Вы хотите узнать о погоде в Барнауле!

Хотите узнать прогноз погоды Барнаул? Тогда Вам сюда: Погода Барнаул

Поиск расширенной информации на нашем сайте:

Другие новости

Новости СМИ2

Главная страница сайта

Новости сайта

02.10.2013

Напоминаем, что на нашем новом сайте вы можете получить высокодетализированные прогнозы погоды по пунктам России, СНГ и мира (включающие важные для авиации метеовеличины, такие как направление и скорость ветра, видимость, явления погоды, количество и форма облачности, нижняя и верхняя граница облачности), а также ознакомиться с разнообразными материалами по авиационной метеорологии и подборкой полезных ссылок на эту тему.

Сайт Метеоцентр.Азия посвящён разработке технологий оптимизации авиаметеорологического обслуживания, включая проектирование и перспективное создание нескольких автоматизированных авиаметеорологических систем:
- система выпуска высокодетальных прогностических карт явлений погоды для нижнего воздушного пространства по России и ближнему зарубежью;
- система верификации прогнозов TAF (выпускаемых синоптиками официальных АМСГ РФ и ближнего зарубежья) и AUTOTAF (выпускаемых сайтом Метеоцентр.Азия) - выявление ошибок, онлайн-сопоставление с фактической погодой METAR, автоматическое внесение коррективов в прогнозы при резком отклонении фактической погоды от прогноза, подсчёт оправдываемости прогнозов по элементам и в целом;
- система обработки, анализа и отображения авиаметеорологической информации для применения провайдерами метеорологической информации.

Рекомендуем: купить airpods https://vk.com/apple_airpods

Погода в Барнауле - сегодня

Время (UTC), дата Ветер
(°,м/с) 
Видим.   Явления Облачность Т
(°С)
Тd
(°С)
f(%) Тe
(°С)
Pmin
(гПа)
dP
(гПа)
Po
(мм)
O2
(г/м3)
Тmin Tmax R s Состояние
почвы
12 18.02.17 тихо ()   10 км    ясно 
-19.2 -21.3 83 -19  1028.6  -1.1  753  328    -11.5       
15 18.02.17 тихо ()   10 км    ясно 
-23.3 -25.4 83 -23  1028.5  -0.6  752  333           
18 18.02.17 тихо ()   10 км    ясно 
-25.9 -28.4 79 -26  1027.1  -1.6  751  336           
21 18.02.17 тихо ()   10 км    ясно 
-25.1 -27.7 79 -25  1026.4  -0.6  751  335           
00 19.02.17 тихо ()   10 км    ясно 
-25 -27.5 80 -25  1024.6  -1.7  749  334  -27.5      72  неравномерный
сухой снег
100% 
03 19.02.17 050 (СВ) 4000 м  дымка  10/0 средняя 
[As op]
-20.6 -22.7 83 -21  1021.5  -2.6  747  327           
06 19.02.17 010 (С) 4000 м  дымка  10/0 средняя 
[As op]
-16 -18.1 84 -16  1019.1  -1.9  746  321           
09 19.02.17 150 (ЮВ) 2000 м  снег  10/10 600 м 
[Ns]
-12.9 -15.2 83 -13  1017.2  -1.6  745  316           
12 19.02.17 200 (Ю) 4000 м  слаб. снег  10/10 600 м 
[Ns]
-13.3 -15.7 82 -18  1018.8  1.5  746  317    -12.4     
15 19.02.17 220 (ЮЗ) 6-10{12}  4000 м  слаб. ливневой снег  10/10 600 м кучево-дожд. 
[Cb calv]
-13.5 -16.3 79 -20  1023.2  4.4  749  319           
18 19.02.17 200 (Ю) 7-10{12}  10 км  позёмок{ливн. осадки}  10/0 средняя 
[As op]
-13.7 -16.8 77 -20  1028.1  4.7  753  321           
21 19.02.17 200 (Ю) 5{12}  10 км  позёмок  4/0 верхняя 
[Cs]
-12.9 -15.9 78 -18  1029  753  320           
00 20.02.17 190 (Ю) 6-12{12}  10 км  позёмок  10/0 верхняя 
[Cs]
-10 -12.9 79 -15  1027.2  -1.5  752  316  -14.1    0.5  70  неравномерный
сухой снег
100% 
03 20.02.17 180 (Ю) 4-13{16}  10 км  позёмок  10/0 средняя 
[As op]
-10.2 -13.7 76 -14  1025.3  -1.9  751  316           
06 20.02.17 170 (Ю) 6-15{17}  2000 м  сильн. снег  10/0 средняя 
[As op]
-9.1 -11.5 83 -14  1022.6  -2.5  749  313           
09 20.02.17 180 (Ю) 7-15{17}  0500 м  сильн. снег  10/0 средняя 
[As op]
-7.6 -9.3 88 -13  1019.5  -2.9  747  310           
12 20.02.17 180 (Ю) 7-13{17}  0500 м  сильн. снег  10/0 средняя 
[As op]
-7 -8.3 90 -12  1019.5  747  310    -6.9     
15 20.02.17 220 (ЮЗ) 8-11{16}  4000 м  слаб. снег  10/0 средняя 
[As op]
-6.7 -10 77 -12  1022.7  3.1  749  310           
18 20.02.17 220 (ЮЗ) 7-12{15}  4000 м  слаб. снег  10/0 средняя 
[As op]
-7 -10.8 74 -12  1025.2  2.5  751  312           
21 20.02.17 200 (Ю) 3{13}  10 км  {снег}  10/0 верхняя 
[Cs]
-6.9 -10.1 78 -10  1025.9  0.7  752  312           
00 21.02.17 190 (Ю) 5-13{13}  10 км  позёмок{снег}  10/0 средняя 
[As op]
-6.1 -8.4 84 -10  1024.2  -1.6  750  310  -8    0.4  70  неравномерный
сухой снег
100% 
03 21.02.17 180 (Ю) 6-13{16}  10 км  позёмок  10/0 средняя 
[As op]
-5.4 -7.3 86 -10  1023.1  -1  750  309           
06 21.02.17 180 (Ю) 6-13{16}  10 км  позёмок  10/0 средняя 
[As op]
-3.8 -5.8 86 -8  1021.1  -1.8  748  306           
09 21.02.17 190 (Ю) 6-14{15}  10 км  позёмок{снег}  10/0 средняя 
[As op]
-3 -4.9 87 -7  1020.1  -0.9  748  305           
12 21.02.17 190 (Ю) 5{14}  10 км  слаб. снег  10/0 средняя 
[As op]
-2.4 -4 89 -6  1021  748  305    -2.4  0.2     
Время (UTC), дата Ветер
(°,м/с) 
Видим.   Явления Облачность Т
(°С)
Тd
(°С)
f(%) Тe
(°С)
Pmin
(гПа)
dP
(гПа)
Po
(мм)
O2
(г/м3)
Тmin Tmax R s Состояние
почвы

Для получения пояснительной информации подведите курсор к названию столбца.

ПОГОДА в Барнауле - архив

Всё, что Вы хотите узнать о погоде в Барнауле - удобно и подробно!

Выберите нужную дату (начиная с 1 января 2015* года) и нажмите кнопку "Найти".
Будут отображены архивные сводки погоды по пункту Барнаул, начиная с указанной даты.


Отображать данные в формате CSV (для использования в таблицах Excel)


Внимание! Наш архив погоды предназначен исключительно для личного некоммерческого использования в познавательных целях. Если Вам необходимы официальные справки о состоянии погоды (для производственных, юридических, коммерческих и т.п. целей), обращайтесь в органы Росгидромета.

*Примечание: данная дата относится к архиву по метеостанциям СССР (Россия, СНГ, Балтия).
Архив по метеостанциям Зарубежной Европы и Азии (кроме Китая) хранится 10 дней, по другим регионам земного шара (Китай, Африка, Америка, Австралия, Океания) - 1 день.

Барнаул - район местоположения метеостанции


Название, широта, долгота, высота метеостанции:
Барнаул (город) 53.4°ш. 83.5°д. 184 м над ур. моря [Российская Федерация]

Дополнительная информация

В oтличие oт бoльшинства пoгoдных сайтoв мы публикуем пoдрoбную метеoинфoрмацию в детальнoм прoфессиoнальнoм фoрмате.

Характеристики температуры и влажнoсти вoздуха измеряются на высoте 2 м в тени вдали oт зданий и деревьев.
Скoрoсть ветра измеряется на высoте 10 м (на урoвне рoста челoвека скoрoсть ветра ниже в 1.5-2 раза). Если метеoстанция нахoдится в гoрoде или в лесу, тo скoрoсть ветра занижена на 2-4 м/с пo сравнению с oткрытым местoм. Скoрoсть ветра над акватoриями крупных рек и oзёр, а также на вершинах хoлмoв на 2-5 м/с выше, чем в oбычных услoвиях.
Атмoсфернoе давление в разных тoчках местнoсти мoжет значительнo oтличаться oт давления на метеoстанции, в зависимoсти oт услoвий рельефа (при пoдъёме на 10 м давление пoнижается примернo на 1 мм рт.ст.).